Regional Weather Roundup
Issued by NWS

Home | Current Version | Previous Version | Text Only | Print | Product List | Glossary On
Versions: 1 2 3 4 5 6 7 8 9 10 11 12 13 14 15 16 17 18 19 20 21 22 23 24 25 26 27 28 29 30 31 32 33 34 35 36 37 38 39 40 41 42 43 44 45 46 47 48 49 50
000
ASUS43 KDTX 170210
RWRMI
MICHIGAN HOURLY REGIONAL WEATHER ROUNDUP
NATIONAL WEATHER SERVICE DETROIT/PONTIAC MI
ISSUED BY NATIONAL WEATHER SERVICE GRAND RAPIDS MI
1000 PM EDT WED AUG 16 2017

NOTE: "FAIR" INDICATES FEW OR NO CLOUDS BELOW 12,000 FEET WITH NO
SIGNIFICANT WEATHER AND/OR OBSTRUCTION TO VISIBILITY.

MIZ047>049-052>055-059>063-066>070-074>076-081>083-170300-
SOUTHEAST LOWER MICHIGAN

CITY           SKY/WX    TMP DP  RH WIND       PRES   REMARKS
ADRIAN         PTCLDY    72  61  68 SE7       30.01R
ALMA           MOCLDY    72  64  76 E9        29.98R
ANN ARBOR      CLEAR     71  60  68 E7        30.01R
BAD AXE        CLEAR     65  59  80 E3        30.04R
DETROIT CITY   CLEAR     73  58  59 SE7       30.02R
DETROIT        PTCLDY    74  58  57 VRB6      30.01S
FLINT          CLEAR     72  60  66 SE7       30.00R
GROSSE ILE     CLEAR     72  61  69 SE3       30.00S
HILLSDALE      CLOUDY    72  61  68 E7        30.00R
HOWELL         CLEAR     73  58  60 SE9       30.01R

CITY           SKY/WX    TMP DP  RH WIND       PRES   REMARKS
JACKSON        CLOUDY    74  60  61 E9        30.00R
LANSING        CLEAR     76  62  62 SE9       29.99R
MASON          CLEAR     73  61  64 SE12G17   29.99S
MONROE         CLEAR     74  62  66 SE6       30.00S
MT. CLEMENS    PTCLDY    71  62  72 SE8       30.01S
PONTIAC        PTCLDY    74  60  61 SE8       30.01R
PORT HOPE        N/A     70  65  84 E12       30.02R
PORT HURON     CLEAR     64  61  88 CALM      30.04R
TRI CITIES     CLEAR     72  64  76 E9        30.00R
YPSILANTI      CLEAR     72  59  63 SE6       30.02R
$$
MIZ043>046-050>051-056>058-064>065-071>073-077>080-170300-
SOUTHWEST LOWER MICHIGAN

CITY           SKY/WX    TMP DP  RH WIND       PRES   REMARKS
BATTLE CREEK   CLOUDY    81  66  60 SE9       29.96S
BENTON HARBOR  MOCLDY    80  68  66 SE5       29.91R
BIG RAPIDS     PTCLDY    72  62  71 E12       29.96R
COLDWATER      CLOUDY    77  65  65 SE9G16    29.97S
HOLLAND        MOCLDY    77  68  73 SE5       29.92S
GRAND RAPIDS   CLOUDY    78  66  66 E7        29.93F
KALAMAZOO      CLOUDY    80  64  58 SE5       29.94S
MARSHALL       CLOUDY    76  65  67 SE8       29.97S
MOUNT PLEASANT CLEAR     72  64  77 E5        29.97S
MUSKEGON       CLOUDY    80  65  59 E6        29.91S
STURGIS        CLOUDY    79  67  67 SE8       29.94F
$$
MIZ016>042-170300-
NORTHERN LOWER MICHIGAN

CITY           SKY/WX    TMP DP  RH WIND       PRES   REMARKS
ALPENA         CLEAR     63  62  97 SE5       30.03R
BEAVER ISLAND  PTCLDY    68  64  86 E9        29.96S
BELLAIRE       PTCLDY    74  61  65 SE7       29.96R
CADILLAC       CLEAR     72  63  73 SE9       29.98S
CHARLEVOIX     MOCLDY    73  64  72 E10       29.99R
GAYLORD        CLEAR     67  60  78 SE10      30.01R
HOUGHTON LAKE  CLEAR     66  60  81 E8        30.01R
OSCODA         MOCLDY    68  63  83 S6        30.01S
PELLSTON       PTCLDY    69  62  78 E6        29.99R
TRAVERSE CITY  MOCLDY    73  65  75 CALM      29.94R
LUDINGTON      CLOUDY    69  65  85 E5        29.91S
$$
MIZ007>008-015-170300-
EASTERN UPPER MICHIGAN

CITY           SKY/WX    TMP DP  RH WIND       PRES   REMARKS
KINROSS        CLOUDY    64  59  83 E10       30.02R
MACKINAC ISLAN CLOUDY    66  64  93 E9        30.00S
NEWBERRY       PTCLDY    63  60  91 E7        29.98S
S. S. MARIE    MOCLDY    66  60  81 SE7       30.02R
$$
MIZ004>006-011>014-085-170300-
CENTRAL UPPER MICHIGAN

CITY           SKY/WX    TMP DP  RH WIND       PRES   REMARKS
MANISTIQUE     CLEAR     65  59  81 E7        29.95S
ESCANABA       PTCLDY    64  62  93 CALM      29.94S
MENOMINEE      CLOUDY    68  63  84 E7        29.94R
SAWYER-GWINN   CLEAR     64  59  82 SE5       29.95S
$$
MIZ001>003-009>011-084-170300-
WESTERN UPPER MICHIGAN

CITY           SKY/WX    TMP DP  RH WIND       PRES   REMARKS
IRON MOUNTAIN  CLOUDY    66  55  67 SE6       29.94R
HOUGHTON       MOCLDY    60  56  86 E10       29.94R
COPPER HARBOR    N/A     64  56  75 S6        29.94S
IRONWOOD       PTCLDY    69  59  70 E7        29.87F
$$

ABBREVIATIONS USED IN REMARKS
   TC - TEMPERATURE IN CELSIUS
  WCI - WIND CHILL INDEX
   HX - HEAT INDEX
  VSB - VISIBILITY





USA.gov is the U.S. government's official web portal to all federal, state and local government web resources and services.